Content
SEND FEEDBACK

Daily
Averages
Monthly
Summary
France

AVIGNON, FRANCE


Home > Europe > France
Elevation: 187 feet     Latitude: 44 00N     Longitude: 004 45E

WEATHER
 
SELECT A DAY
Number of Records: 167,762;   Date Range: 5/17/04 - 9/15/14
 
SHARE

PRINT THIS DATA

[ ← Previous Day ]
WEATHER ALMANAC - FEBRUARY 9, 2013
[ Next Day → ]
[ °C ]   °F
Weather ElementAverageHighLow
Temperature37.1 °F44.6 °F (2:00 pm)32 °F (9:00 pm)
Dewpoint23.8 °F26.6 °F (12:30 am)19.4 °F (2:30 pm)
Humidity60.3 %80 % (11:00 pm)37 % (2:30 pm)
Barometer30.03 in30.06 in (11:00 am)29.98 in (1:00 am)
Wind Speed16.1 mph26.5 mph (11:30 am)
Wind Gust40.3 mph (12:00 pm)
Weather ElementAverage
Visibility6.2 mi
Wind DirectionNNW (347.4 °)

Weather ElementTotal
Precipitation---
Heating Degree Days26.7 (Base 65)
Averaged from 47 records on February 9, 2013
WEATHER CONDITIONS BREAKOUT
WIND DIRECTION BREAKOUT
WEATHER BY HOUR - FEBRUARY 9, 2013
[ °C ]   °F
Local TimeTemperatureDewpointHumidityBarometerVisibilityWind DirectionWind SpeedGust SpeedPrecipitationEventsConditions
12:30 AM35.6 °F26.6 °F70 %30.01 in6.2 miNorth (350°)21.9 mph
1:00 AM35.6 °F26.6 °F70 %29.98 in6.2 miNorth (350°)23.0 mph35.7 mph
1:30 AM35.6 °F24.8 °F65 %29.98 in6.2 miNorth (360°)23.0 mph
2:00 AM35.6 °F26.6 °F70 %30.01 in6.2 miNorth (350°)19.6 mph
2:30 AM35.6 °F24.8 °F65 %30.01 in6.2 miNorth (350°)18.4 mph
3:00 AM35.6 °F24.8 °F65 %30.01 in6.2 miNorth (360°)13.8 mph
3:30 AM35.6 °F24.8 °F65 %30.01 in6.2 miNorth (350°)19.6 mph
4:00 AM33.8 °F26.6 °F75 %30.01 in6.2 miNorth (350°)18.4 mph
4:30 AM35.6 °F26.6 °F70 %30.01 in6.2 miNorth (350°)20.7 mph
5:00 AM33.8 °F26.6 °F75 %30.01 in6.2 miNorth (350°)15.0 mph
5:30 AM33.8 °F26.6 °F75 %30.01 in6.2 miNorth (350°)13.8 mph
6:00 AM33.8 °F26.6 °F75 %30.01 in6.2 miNNW (330°)17.3 mph
6:30 AM33.8 °F26.6 °F75 %30.01 in6.2 miNNW (330°)12.7 mph
7:00 AM33.8 °F26.6 °F75 %30.04 in6.2 miNNW (340°)16.1 mph
7:30 AM33.8 °F26.6 °F75 %30.04 in6.2 miNNW (340°)13.8 mph
8:00 AM33.8 °F26.6 °F75 %30.04 in6.2 miNNW (330°)12.7 mph
8:30 AM33.8 °F26.6 °F75 %30.04 in6.2 miNNW (340°)12.7 mph
9:00 AM35.6 °F26.6 °F70 %30.04 in6.2 miNorth (350°)17.3 mph
9:30 AM37.4 °F26.6 °F65 %30.04 in6.2 miNorth (350°)21.9 mphPartly Cloudy
10:00 AM39.2 °F24.8 °F56 %30.04 in6.2 miNorth (350°)23.0 mph38.0 mph
10:30 AM39.2 °F24.8 °F56 %30.04 in6.2 miNorth (360°)20.7 mph
11:00 AM39.2 °F23.0 °F52 %30.06 in6.2 miNorth (350°)20.7 mph35.7 mph
11:30 AM41.0 °F23.0 °F49 %30.06 in6.2 miNorth (350°)26.5 mph38.0 mph
12:00 PM41.0 °F23.0 °F49 %30.06 in6.2 miNorth (360°)24.2 mph40.3 mph
12:30 PM42.8 °F21.2 °F42 %30.04 in6.2 miNorth (360°)25.3 mph
1:00 PM42.8 °F21.2 °F42 %30.04 in6.2 miNorth (360°)20.7 mph33.4 mph
1:30 PM42.8 °F21.2 °F42 %30.04 in6.2 miNorth (360°)20.7 mph
2:00 PM44.6 °F21.2 °F39 %30.04 in6.2 miNorth (350°)17.3 mph31.1 mph
2:30 PM44.6 °F19.4 °F37 %30.04 in6.2 miNorth (360°)23.0 mph
3:00 PM44.6 °F19.4 °F37 %30.01 in6.2 miNorth (360°)19.6 mph
3:30 PM44.6 °F19.4 °F37 %30.04 in6.2 miNorth (350°)19.6 mph
4:00 PM44.6 °F21.2 °F39 %30.04 in6.2 miNorth (350°)18.4 mph
4:30 PM42.8 °F21.2 °F42 %30.01 in6.2 miNorth (350°)15.0 mph
5:00 PM41.0 °F19.4 °F42 %30.01 in6.2 miNorth (360°)12.7 mph
5:30 PM39.2 °F21.2 °F49 %30.01 in6.2 miNorth (360°)11.5 mphPartly Cloudy
6:00 PM39.2 °F19.4 °F45 %30.01 in6.2 miNorth (360°)11.5 mph
6:30 PM37.4 °F21.2 °F52 %30.04 in6.2 miNW (320°)9.2 mph
7:00 PM37.4 °F21.2 °F52 %30.04 in6.2 miNNW (330°)9.2 mph
7:30 PM33.8 °F21.2 °F60 %30.04 in6.2 miNNW (340°)8.1 mph
8:00 PM35.6 °F21.2 °F56 %30.04 in6.2 miNNW (340°)9.2 mph
8:30 PM33.8 °F23.0 °F65 %30.04 in6.2 miNNW (340°)8.1 mph
9:00 PM32.0 °F23.0 °F69 %30.04 in6.2 miNorth (350°)8.1 mph
9:30 PM32.0 °F23.0 °F69 %30.04 in6.2 miNorth (350°)8.1 mph
10:00 PM32.0 °F23.0 °F69 %30.04 in6.2 miNNW (330°)8.1 mph
10:30 PM32.0 °F24.8 °F75 %30.04 in6.2 miNNW (330°)8.1 mphMostly Cloudy
11:00 PM32.0 °F26.6 °F80 %30.04 in6.2 miNNW (340°)9.2 mphScattered Clouds
11:30 PM32.0 °F26.6 °F80 %30.04 in6.2 miNNW (330°)6.9 mph
Hourly data recorded from LFMV, located miles away from Avignon, France







STORIES FROM OUR PARTNERS